This is the latest recevied weather packets stored in our database for station/object KA9CBS. If no packets are shown the sender has not sent any weather packets the latest 10 day(s).
| Time | Temp. | Humidity | Pressure | Rain* | Wind** | Luminosity | Snow |
|---|---|---|---|---|---|---|---|
| 1778031621 | 8.33° C | 99% | 1010.9 hPa | 1.78 mm | - | 0 W/m² | - |
| 1778031319 | 8.33° C | 99% | 1010.6 hPa | 3.05 mm | - | 0 W/m² | - |
| 1778031016 | 8.33° C | 99% | 1010.6 hPa | 3.05 mm | - | 0 W/m² | - |
| 1778030712 | 8.33° C | 99% | 1010.5 hPa | 4.83 mm | - | 0 W/m² | - |
| 1778030409 | 8.33° C | 99% | 1010.8 hPa | 14.99 mm | - | 0 W/m² | - |
| 1778030107 | 8.33° C | 99% | 1010.7 hPa | 13.21 mm | - | 0 W/m² | - |
| 1778029802 | 8.89° C | 99% | 1011.5 hPa | 3.05 mm | - | 0 W/m² | - |
| 1778029502 | 8.89° C | 99% | 1011 hPa | 3.05 mm | - | 0 W/m² | - |
| 1778029197 | 8.89° C | 99% | 1011.1 hPa | 6.6 mm | - | 0 W/m² | - |
| 1778028895 | 8.89° C | 99% | 1011.1 hPa | 6.6 mm | - | 0 W/m² | - |
| 1778028590 | 8.89° C | 99% | 1010.8 hPa | 3.05 mm | - | 0 W/m² | - |
| 1778028289 | 8.89° C | 99% | 1010.7 hPa | 0 mm | - | 0 W/m² | - |
| 1778027984 | 8.89° C | 99% | 1010.3 hPa | 0 mm | - | 0 W/m² | - |
| 1778027681 | 8.89° C | 99% | 1010.1 hPa | 0 mm | - | 0 W/m² | - |
| 1778027378 | 8.89° C | 99% | 1010.3 hPa | 0 mm | - | 0 W/m² | - |
| 1778027074 | 9.44° C | 99% | 1010 hPa | 0 mm | - | 0 W/m² | - |
| 1778026769 | 9.44° C | 99% | 1010.4 hPa | 0 mm | - | 0 W/m² | - |
| 1778026467 | 9.44° C | 99% | 1009.9 hPa | 0 mm | - | 0 W/m² | - |
| 1778026164 | 9.44° C | 99% | 1009.9 hPa | 0 mm | - | 0 W/m² | - |
| 1778025861 | 9.44° C | 99% | 1009.9 hPa | 0 mm | - | 0 W/m² | - |
| 1778025558 | 10° C | 99% | 1010 hPa | 0 mm | - | 0 W/m² | - |
| 1778025256 | 9.44° C | 99% | 1010 hPa | 0 mm | - | 2 W/m² | - |
| 1778024952 | 9.44° C | 99% | 1010.3 hPa | 0 mm | - | 3 W/m² | - |
| 1778024650 | 10° C | 99% | 1010.2 hPa | 0 mm | - | 3 W/m² | - |
| 1778024347 | 10° C | 98% | 1010 hPa | 0 mm | - | 5 W/m² | - |
* Rain latest hour (hover to see other rain measurements)
** Current wind speed in m/s (hover to see current wind gust speed)